Regional Weather Roundup
Issued by NWS

Home | Current Version | Previous Version | Text Only | Print | Product List | Glossary On
Versions: 1 2 3 4 5 6 7 8 9 10 11 12 13 14 15 16 17 18 19 20 21 22 23 24 25 26 27 28 29 30 31 32 33 34 35 36 37 38 39 40 41 42 43 44 45 46 47 48 49 50
000
ASUS42 KKEY 221810
RWRKEY

FLORIDA REGIONAL WEATHER ROUNDUP FOR THE FLORIDA KEYS
NATIONAL WEATHER SERVICE KEY WEST FLORIDA
100 PM EST MON DEC 22 2014

...SOUTH FLORIDA AND THE KEYS...

CITY           SKY/WX    TMP DP  RH WIND       PRES   REMARKS
FORT MYERS     MOSUNNY   81  69  67 S12G21    29.96F
SW REGIONAL AP MOSUNNY   81  67  62 S14       29.97F
NAPLES         CLOUDY    80  69  69 S13       29.97F
MIAMI          PTSUNNY   81  68  64 S12G17    29.99F
WEST KENDALL   MOSUNNY   80  68  66 S6        29.99F
HOMESTEAD      NOT AVBL
MARATHON       MOSUNNY   83  74  74 S6        29.97F
BOCA CHICA NAS PTSUNNY   81  71  71 S14       29.98F
KEY WEST INTL  PTSUNNY   80  72  76 SE12      29.98F

...INTERNATIONAL WEATHER...

CITY           SKY/WX    TMP DP  RH WIND       PRES   REMARKS
NASSAU BAHAMAS PTSUNNY   82  73  74 S12       30.02F
CANCUN MEXICO  PTSUNNY   82  73  74 SE15      29.92F
COZUMEL MEXICO PTSUNNY   77  73  88 SE14      29.92F

ADJACENT COASTAL WATERS...

STATION/POSITION TIME  SKY/WX   TEMP    WIND        PRES    WAVE
                                AIR SEA DIR/SP/G            HT/PER
                 (UTC)          (F)     (DEG/KT/KT) (MB)    (FT/S)
PULASKI SHOAL LI 1700            76     160/  7/  7 1015.6F
SAND KEY         1736            77     160/ 12/ 14 1015.2F
SOMBRERO KEY     1800            78     170/ 13/ 14 1015.6F
LONG KEY         1700            77 73  160/ 10/ 11 1016.7F
MOLASSES REEF    1800            77 77  170/ 12/ 12 1015.3F
FOWEY ROCKS      1800            78 76  160/ 10/ 11 1015.9F
Buoy 42080       NOT AVBL

$$



USA.gov is the U.S. government's official web portal to all federal, state and local government web resources and services.